Temp
18 18 18 18 17 17 17 17 17 17 17 17 17 16 16 16 15 15 15 15 15 15 15 14 15 15 15 15 15 15 15 15 15 15 15 15 15 15 15 14 14 14
17 17 17 17 17 17 17 17 17 17 17 17 17 16 16 15 15 15 15 15 15 15 14 14 15 15 14 14 14 14 14 15 15 14 15 15 14 14 14 14 14 14
17 17 17 17 17 17 17 17 17 17 17 16 16 16 16 15 15 15 15 15 14 14 14 15 15 14 14 14 14 14 14 14 14 14 14 14 14 14 13 13 13 13
17 17 17 17 17 17 17 17 17 17 16 16 16 16 15 15 15 14 14 14 14 14 14 14 14 14 14 13 14 14 14 14 14 14 14 13 13 13 13 13 13 13
17 17 17 17 17 17 16 16 16 16 16 16 16 15 15 15 14 14 14 14 14 14 14 14 14 14 13 13 14 14 14 13 13 13 13 13 13 13 13 13 12 12
17 17 17 17 17 17 16 16 16 16 16 16 15 15 15 15 14 14 14 14 14 14 14 14 13 13 13 13 13 14 13 13 13 13 13 12 12 12 12 12 12 12
16 17 17 17 17 16 16 16 16 16 16 15 15 15 15 14 14 14 14 14 14 14 14 13 13 13 13 13 13 13 13 13 12 12 13 12 12 12 12 12 12 12
16 17 17 16 16 16 16 16 15 15 15 15 15 15 15 14 14 14 14 14 14 13 13 13 13 13 13 13 13 13 12 12 12 12 12 12 12 12 12 12 12 12
16 16 16 16 16 16 16 15 15 15 15 15 15 15 15 14 14 14 14 14 13 13 13 13 13 13 13 13 13 12 12 12 12 12 12 12 12 12 11 11 11 11
16 16 16 16 16 16 15 15 15 15 15 15 15 15 14 14 14 14 14 13 13 13 13 13 13 13 13 13 13 12 12 12 12 12 12 12 12 12 11 11 11 11
16 16 16 16 16 16 15 15 15 15 15 15 15 15 14 14 14 13 13 13 13 13 13 13 13 13 12 12 12 12 12 12 12 12 12 12 12 12 11 11 11 11
16 16 16 16 16 16 15 15 15 15 15 15 15 15 14 14 14 13 13 13 13 13 13 13 13 12 12 12 12 12 12 12 12 12 12 12 11 11 11 11 11 11
16 16 16 16 16 16 15 15 15 15 15 15 15 15 14 14 13 13 13 13 13 13 13 13 12 12 12 12 12 12 12 12 12 12 12 11 11 11 11 11 11 11
16 16 16 16 16 15 15 15 15 15 15 15 15 14 14 14 14 13 13 13 13 13 13 13 12 12 12 12 12 12 12 12 12 12 11 11 11 11 11 11 11 11
16 16 16 16 16 15 15 15 15 15 15 15 15 15 14 14 14 13 13 13 13 13 13 12 12 12 12 12 12 12 12 12 12 12 11 11 11 11 11 11 11 10
16 16 16 16 15 15 15 15 15 15 15 15 15 15 14 14 13 13 13 13 13 13 12 12 12 12 12 12 12 12 12 12 12 12 11 11 11 11 11 11 10 10
16 16 16 15 15 15 15 15 15 15 15 15 15 14 14 14 13 13 13 13 13 13 12 12 12 12 12 12 12 12 12 12 12 11 11 11 11 11 11 10 10 10
16 15 15 15 15 15 15 14 14 15 15 15 14 14 14 14 13 13 13 13 13 13 13 12 12 12 12 12 12 12 12 12 12 11 11 11 11 11 10 10 10 10
16 15 15 15 15 15 15 14 14 15 15 15 14 14 14 13 13 13 13 13 13 13 13 13 12 12 12 12 12 12 12 12 12 11 11 11 11 11 10 10 10 10
16 15 15 15 15 15 14 14 15 15 15 15 14 14 13 13 13 13 13 13 13 13 13 13 13 12 12 12 12 12 12 12 11 11 11 11 11 10 10 10 10 10
15 15 15 15 15 14 14 14 15 15 15 14 14 14 13 13 13 13 13 13 13 13 13 13 13 13 12 12 12 12 12 12 11 11 11 11 10 10 10 10 10 9
15 15 15 15 14 14 14 14 14 15 14 14 14 14 13 14 14 14 14 14 13 13 13 13 13 13 12 12 12 12 12 11 11 11 11 11 10 10 10 10 10 10
15 15 15 15 14 14 14 14 14 14 14 14 14 13 13 14 14 14 14 14 14 13 13 13 13 13 12 12 12 12 12 11 11 11 11 10 10 10 10 9 10 10
15 15 15 15 14 14 14 14 14 14 14 14 14 13 13 14 14 14 14 14 14 14 13 13 13 13 12 12 12 12 11 11 11 11 11 10 10 10 9 9 10 10
15 15 15 15 14 14 14 14 14 14 14 14 14 14 14 14 14 14 14 14 14 14 13 13 13 13 12 12 11 11 11 11 11 11 11 10 10 10 10 10 10 10
15 15 15 15 15 14 14 14 14 14 14 13 13 14 14 14 14 14 14 14 13 13 13 13 13 13 12 12 12 11 11 11 11 11 11 10 10 10 10 10 10 10
Height
785 787 789 790 792 794 796 798 800 802 805 807 809 811 813 815 816 818 819 820 821 822 824 825 825 825 827 829 829 829 830 831 831 832 833 834 834 835 836 837 838 838
783 785 787 789 791 793 795 797 799 801 804 806 808 810 812 814 815 817 818 819 820 821 823 824 824 824 826 828 828 828 829 830 831 832 832 833 834 835 836 837 837 838
782 784 786 788 790 792 794 796 799 801 803 805 807 809 811 813 814 816 817 818 819 820 821 822 823 824 826 827 827 827 828 829 830 831 832 833 834 834 835 836 837 838
780 782 784 786 788 791 793 795 798 800 802 804 806 809 810 812 813 815 816 817 818 819 820 821 822 823 825 826 826 826 827 829 829 830 831 832 833 834 835 836 837 838
779 781 783 786 788 790 792 794 796 798 801 803 805 807 809 810 812 813 815 816 817 818 819 820 822 823 825 826 826 826 827 828 829 830 831 832 833 834 835 836 837 838
777 780 782 785 787 789 791 793 795 797 799 802 804 806 808 809 811 812 814 815 816 817 818 820 822 823 824 825 826 826 827 828 829 830 831 831 833 834 835 836 837 838
776 778 781 784 786 788 790 792 794 796 798 800 802 804 806 808 810 811 813 814 815 817 818 820 821 823 824 825 825 826 827 828 829 830 831 832 833 834 835 837 837 837
774 777 780 782 784 787 789 791 793 795 797 799 801 803 805 807 808 810 812 813 815 817 818 820 821 823 824 825 825 826 827 828 829 829 830 831 832 834 835 836 837 837
773 775 778 781 783 785 787 789 792 794 796 797 799 802 804 806 808 809 811 813 814 816 817 819 821 822 823 824 825 826 827 828 829 829 829 830 832 833 834 836 836 837
771 773 776 779 781 784 786 788 790 792 795 796 798 801 803 805 807 809 811 812 814 815 816 818 820 821 823 824 824 825 826 827 828 828 829 830 831 832 834 835 836 837
769 772 774 777 779 782 784 786 788 791 793 795 797 800 802 804 806 808 810 811 812 814 815 817 819 820 821 823 824 825 825 826 827 828 829 830 831 832 833 834 836 836
767 769 772 774 777 780 782 784 787 789 792 794 796 799 801 803 805 807 809 810 811 813 814 816 818 819 820 822 823 824 825 826 827 828 829 830 831 832 833 834 835 836
764 767 770 773 776 778 780 782 785 788 790 793 795 798 800 802 804 806 807 809 811 812 814 815 817 818 819 821 822 823 825 826 827 828 829 830 831 832 833 834 835 836
762 765 768 771 774 776 779 781 783 786 789 792 794 797 799 801 803 805 807 808 810 811 813 814 816 817 818 820 821 823 824 825 826 827 828 829 831 832 833 834 835 836
760 764 767 770 772 775 777 779 782 785 787 790 793 795 798 800 802 804 806 808 809 811 812 814 815 816 818 819 820 822 823 824 825 826 827 828 830 831 832 833 834 835
759 762 765 768 770 773 775 778 781 783 786 789 792 794 797 799 801 803 805 806 808 810 812 813 814 815 817 818 820 821 822 824 825 826 827 827 828 830 831 833 834 835
757 760 763 766 769 771 774 776 779 782 785 788 790 792 795 797 800 802 803 805 807 808 810 811 813 814 816 818 819 820 821 822 824 825 826 827 828 829 831 833 834 836
754 758 761 764 767 770 773 775 778 781 784 786 788 791 793 796 798 800 802 804 806 807 808 810 812 814 815 817 818 819 821 822 824 825 826 828 829 830 832 834 835 837
752 756 759 763 766 769 772 774 777 779 781 784 786 789 792 794 796 798 800 802 804 805 807 809 811 813 814 815 817 818 820 822 823 825 826 827 829 831 833 835 836 838
750 753 757 761 765 768 771 773 775 777 780 782 785 788 790 792 795 797 799 801 802 804 806 808 810 811 812 814 816 817 819 820 822 824 825 826 828 831 833 835 836 838
747 751 756 760 764 767 769 772 773 775 778 781 783 786 788 791 793 795 797 799 801 803 805 806 808 809 811 813 815 817 818 820 821 823 824 825 827 828 830 831 831 832
745 750 754 758 762 765 768 770 772 773 776 779 781 784 787 790 792 794 796 798 799 801 803 804 805 807 810 812 814 816 818 819 820 822 822 823 825 826 826 827 827 828
743 748 752 756 760 763 766 769 770 772 775 777 780 783 785 788 791 793 794 796 797 799 800 802 804 806 809 811 813 815 816 818 819 821 821 822 823 824 825 825 826 827
742 745 750 754 758 761 765 767 769 771 773 775 778 780 783 786 789 791 792 793 794 796 798 800 803 805 808 810 812 813 814 816 818 819 820 821 822 824 824 825 826 826
740 743 746 750 754 757 760 763 765 768 770 773 776 778 781 784 787 789 790 791 792 794 797 799 802 804 806 808 810 811 813 814 816 817 818 820 821 822 823 824 825 826
737 739 741 744 749 753 757 760 763 765 768 771 774 777 780 783 785 786 788 789 791 794 795 798 800 802 804 805 807 809 810 812 814 815 816 817 819 820 821 822 823 824
Wind_Speed
34 35 35 35 34 34 34 34 33 32 29 27 26 23 21 19 18 18 18 19 19 18 16 17 17 18 18 19 20 20 20 20 20 19 19 18 18 17 17 16 15 15
34 34 34 34 33 33 34 34 33 31 29 27 25 23 20 19 19 19 19 18 19 18 18 18 17 18 20 21 22 22 22 21 20 20 19 19 18 18 17 17 16 15
34 34 34 34 34 33 33 32 32 31 29 27 24 22 21 21 21 21 20 19 19 19 20 19 19 20 22 23 23 22 22 22 21 20 20 19 19 18 17 17 16 15
34 35 35 34 34 33 33 32 31 29 28 26 24 23 22 22 22 22 21 21 20 21 21 21 21 22 22 23 23 22 22 22 22 21 21 20 18 18 17 16 16 16
34 34 34 34 33 33 32 32 31 29 28 27 25 24 24 24 24 23 22 22 22 23 23 23 23 23 23 23 22 22 23 23 22 22 21 20 18 17 17 16 16 16
34 34 34 33 33 33 32 31 30 29 29 28 27 26 26 26 25 25 24 24 24 24 24 24 24 23 23 23 22 22 23 24 23 22 21 20 19 17 16 16 17 17
34 34 34 33 33 33 32 31 30 30 30 30 29 28 28 27 27 26 26 25 25 26 25 25 25 24 23 23 22 23 23 23 23 22 21 20 19 17 16 16 17 17
33 34 33 33 33 32 32 31 31 32 32 32 31 30 29 28 28 27 26 26 26 26 26 25 24 24 23 23 23 24 23 23 23 23 22 21 20 18 18 17 17 17
33 33 33 32 33 33 32 32 32 33 33 33 32 31 30 28 28 28 27 26 26 27 26 26 24 24 24 24 24 24 24 23 23 22 22 21 20 20 19 18 17 16
33 33 33 33 33 33 33 33 33 33 33 33 32 31 30 29 28 28 27 27 27 28 27 26 25 25 24 24 24 24 24 23 23 22 21 21 20 19 18 17 17 17
33 33 33 34 34 33 33 33 33 33 33 33 32 31 30 29 29 28 28 28 28 29 28 27 26 25 25 25 24 24 23 22 22 21 20 20 19 18 17 17 16 16
34 34 34 34 34 33 33 34 34 34 34 34 33 32 30 30 30 29 29 29 29 29 28 27 26 25 25 24 24 24 22 21 21 21 20 19 18 17 16 15 14 15
35 34 34 34 33 33 34 35 35 36 36 35 33 32 31 30 30 30 30 29 29 29 28 27 27 26 24 24 24 24 22 21 21 20 19 19 17 16 15 13 13 14
35 34 34 34 33 33 34 35 36 36 36 35 33 32 31 30 30 30 30 29 28 29 28 28 27 25 25 24 24 23 23 22 21 20 20 19 17 16 15 14 13 14
33 33 34 34 34 34 35 36 36 36 36 34 33 31 30 30 30 30 29 29 29 28 28 28 27 26 25 25 25 24 24 23 22 21 21 19 18 17 16 15 14 14
32 33 34 34 35 35 35 36 36 35 35 33 31 30 29 29 29 29 29 29 29 28 28 28 27 26 25 25 25 24 24 24 22 21 21 21 20 20 18 16 15 13
33 33 34 35 35 35 36 36 35 35 34 32 30 30 30 30 30 30 30 29 29 29 29 29 28 26 26 25 24 24 24 24 23 22 22 22 21 20 19 17 15 12
34 34 34 34 34 35 35 34 34 35 33 30 30 31 30 30 31 31 30 30 29 29 29 29 28 26 26 25 24 25 24 23 22 22 23 22 20 19 17 15 13 10
35 35 34 34 34 34 34 34 34 33 31 30 31 31 30 31 32 32 31 30 30 30 29 29 27 26 26 25 25 25 24 22 22 23 23 22 19 17 15 13 10 7
36 36 35 34 33 34 34 34 34 32 30 30 31 31 31 32 33 32 31 31 30 30 29 29 28 27 26 26 26 25 24 23 23 23 22 21 19 17 14 12 9 5
36 36 35 34 33 33 33 33 33 32 31 31 32 32 33 33 33 32 31 31 30 29 29 29 29 28 27 26 26 25 24 24 24 23 22 21 20 18 17 16 14 10
36 35 34 33 33 32 32 33 32 32 32 32 32 32 33 33 33 32 32 31 30 29 30 30 30 29 28 27 26 26 25 25 24 23 24 23 21 20 21 20 18 16
37 36 34 33 33 32 31 31 31 31 32 33 32 32 32 33 33 32 32 31 30 30 31 32 31 29 28 28 27 27 27 25 23 24 24 23 22 23 23 21 19 18
37 37 36 35 33 33 32 31 31 32 33 34 34 33 33 33 33 33 32 32 32 31 32 32 31 30 29 28 28 30 28 24 24 25 24 23 23 24 22 20 20 21
37 38 39 37 35 35 35 34 33 33 34 34 34 33 33 33 33 33 32 32 32 31 31 31 31 30 31 29 30 32 28 23 25 27 25 24 25 24 23 22 23 23
40 40 40 40 40 39 37 35 33 33 33 33 33 32 33 33 33 33 33 32 31 29 30 31 31 31 32 31 31 31 26 23 27 28 27 27 26 25 26 26 25 25
Wind_Direction
190 187 186 186 186 186 186 187 188 189 191 194 197 197 194 193 191 190 191 190 192 197 196 193 193 194 196 197 194 190 187 184 181 179 180 178 175 173 170 167 166 163
190 188 186 186 187 187 188 190 190 192 195 198 199 197 194 192 191 191 190 186 189 194 194 194 192 191 193 192 189 186 183 182 180 180 181 178 175 174 171 168 166 164
191 189 188 188 188 188 190 190 192 195 198 197 197 196 194 193 191 190 190 188 187 187 190 192 190 189 191 189 186 183 182 181 178 177 178 175 173 172 169 168 165 163
191 190 191 191 190 190 191 191 192 196 198 196 196 196 194 193 191 189 190 191 190 187 187 189 189 189 190 188 185 181 181 180 176 175 173 169 170 170 166 166 163 159
192 191 192 192 192 192 191 192 193 196 198 197 195 194 193 192 191 191 190 190 191 189 188 188 190 190 189 188 185 181 179 177 174 174 171 165 166 168 164 164 160 154
191 191 193 193 193 193 192 193 195 198 200 197 193 192 193 193 192 193 192 191 192 192 189 189 190 190 189 188 185 181 179 175 173 173 170 163 162 162 160 160 155 148
189 190 192 194 194 194 194 195 197 200 199 196 193 192 194 194 194 195 194 194 194 193 191 190 190 189 188 188 184 181 179 176 173 172 169 163 160 159 158 156 151 143
188 189 191 193 193 193 194 195 196 196 195 194 193 193 195 196 197 197 196 195 194 193 193 192 192 190 188 188 185 181 178 175 173 173 170 165 161 159 157 156 151 144
187 188 190 190 190 191 192 191 192 193 194 194 194 194 196 198 199 198 196 196 195 194 194 193 193 192 190 189 187 183 178 176 177 177 173 168 164 162 161 161 156 150
188 187 188 188 188 188 188 188 190 192 194 195 194 193 195 197 199 198 196 196 196 195 195 194 194 193 191 191 190 187 183 180 179 179 176 173 170 168 168 168 166 160
189 188 188 187 188 188 188 188 190 193 194 195 193 193 194 196 197 197 197 197 197 196 196 195 195 194 192 192 191 190 188 184 181 179 177 175 174 173 172 172 173 170
189 189 188 187 188 187 188 189 190 192 193 193 193 193 194 195 196 197 198 198 198 198 197 196 196 196 195 194 192 191 189 186 181 178 176 175 174 173 173 173 174 172
189 189 188 187 187 187 186 188 189 191 192 193 194 194 194 195 197 198 199 199 199 198 199 198 197 197 197 195 192 190 189 185 181 179 176 176 176 175 175 175 172 171
189 189 187 186 186 185 185 186 188 189 191 193 193 194 196 197 198 199 199 200 201 201 201 200 199 198 197 195 192 190 189 186 183 181 179 177 177 177 176 176 174 172
187 186 185 185 184 183 183 185 187 188 189 190 191 195 198 199 199 199 199 200 201 202 202 202 201 200 197 195 193 191 190 189 187 185 182 178 176 176 177 178 177 176
184 182 181 182 183 183 183 184 185 185 186 187 191 195 197 198 199 199 200 201 201 201 202 202 203 202 199 198 196 194 191 190 189 187 184 180 177 176 176 177 178 179
180 179 179 181 183 183 183 183 183 184 185 188 192 195 197 198 198 200 202 202 202 201 202 202 203 203 201 200 199 197 195 193 191 189 185 182 181 179 176 174 175 176
177 177 178 181 183 183 183 182 182 183 186 191 193 195 196 198 199 201 202 202 202 202 202 203 204 203 202 201 201 199 198 197 194 189 185 184 184 181 176 173 173 175
176 176 178 181 183 184 183 183 183 185 190 194 195 195 197 198 199 201 202 202 202 202 203 203 204 204 203 203 201 199 198 198 195 190 187 184 184 183 179 176 177 180
176 176 179 182 183 184 184 184 185 189 194 196 195 195 196 197 198 200 201 202 203 203 204 204 204 205 204 202 201 199 199 198 194 191 188 185 185 187 184 180 179 184
176 177 179 181 183 184 185 186 187 189 193 194 193 194 196 197 198 200 200 202 204 204 204 204 205 205 203 202 200 199 199 197 194 191 189 187 189 192 190 188 187 188
176 177 178 180 182 183 184 186 187 189 191 192 193 194 196 197 198 199 201 202 203 204 205 205 205 204 201 200 199 198 198 197 195 194 191 190 194 196 196 196 192 188
176 177 177 179 181 183 186 188 188 188 190 192 192 192 194 196 198 199 202 203 204 206 206 205 203 201 199 199 199 198 196 195 197 197 193 194 198 199 201 202 194 190
176 176 178 180 182 184 187 190 190 190 191 192 192 191 192 196 199 201 203 206 207 207 206 205 202 198 197 198 199 198 196 196 198 197 195 197 199 200 207 208 200 201
177 179 181 182 183 186 190 192 191 190 191 193 193 192 193 195 199 201 203 206 208 207 206 205 202 196 195 198 198 197 198 200 200 198 198 199 200 202 208 211 209 212
179 183 184 183 184 188 191 191 190 189 190 191 191 192 193 196 199 202 204 205 206 205 205 205 202 197 195 197 199 200 202 203 202 201 201 200 201 206 210 211 213 216